FENGYUN 1C DEB, 33664

Orbit data source: Space-Track

FENGYUN 1C DEB, 33664 is space debris in SSO originally from a launch on Mon, 10 May 1999 UTC launched from the Taiyaun Space Center, China (TSC). Fengyun 1C debris stems from the Chinese weather satellite Fengyun-1C, which was intentionally destroyed by a Chinese anti-satellite missile in 2007. This event dramatically increased the amount of space debris, with thousands of trackable fragments posing hazards to satellites and human spaceflight. The Fengyun 1C debris cloud has become a focal point in discussions about space sustainability and the need for international regulations to prevent the creation of new debris.

Loading next visibility...
Identifier
33664, 1999-025DEZ
Orbit
SSO
Country
Flag of CNCN / PRC
Related business
Manufacturer
Unknown
Mission
Spacecraft
Bus & Motor
Unknown
Mass
Unknown
Launch date (UTC)
1999-05-10 (27 years ago)
Launch vehicle
Unknown
Launch site
Taiyaun Space Center, China (TSC)
Object type
Payload
Rocket body
Debris
Shape & HBR
Unknown shape, 0.1 m
Radar Cross Section
Small (<0.1 m²)

Expand to show TLE details & history
Last TLE update: 18 hours ago

TLE from 18 hours ago
0 FENGYUN 1C DEB
1 33664U 99025DEZ 26206.35379729  .00000431  00000-0  26361-3 0  9997
2 33664  98.7319 351.1361 0164164 129.1513 232.4374 14.04265799938917
Epoch: 2026-07-25T08:29Z
TLE epoch observation values (Epoch: 2026-07-25T08:29:28.085Z)
Latitude
-0.00005°
Longitude
-79.2982°
Altitude
955.809 km
Speed
7.336 km/s
True Right ascension
23h 24m 32s
True Declination
0° 00' 00"
Sunlit
Object was in full shadow at epoch
Visualization orbit readout
Latitude
Unknown
Longitude
Unknown
Altitude
Unknown
Speed
Unknown
Apparent Right ascension
Unknown
Apparent Declination
Unknown
Sunlit
N/A
Visualization observer readout
Local Sidereal Time
16:10:43
Azimuth
Unknown
Elevation
Unknown
Doppler factor
Unknown
Orbital elements
Apogee altitude
995.331 km
Perigee altitude
757.15 km
Semi-major axis
7,254.377 km
Eccentricity
0.01642
Inclination
98.7319°
RAAN
351.1361°
Arg. of periapsis
129.1513°
True anomaly
230.96481°
Mean anomaly
232.4374°
Eccentric anomaly
231.69925°
Mean motion
3.51272 °/min
Orbital period
102.48 mins
BSTAR
0.00026361
Loading maneuver chart data...
Computing Atmospheric mass density...

Documentation

Showing up to 5 results
|